Regional Weather Roundup
Issued by NWS

Home | Current Version | Previous Version | Graphics & Text | Print | Product List | Glossary On
Versions: 1 2 3 4 5 6 7 8 9 10 11 12 13 14 15 16 17 18 19 20 21 22 23 24 25 26 27
000
ASUS45 KBOU 252207
RWRCO

WEATHER ROUNDUP FOR COLORADO
NATIONAL WEATHER SERVICE DENVER/BOULDER CO
400 PM MDT SAT MAR 25 2017

NOTE: "FAIR" INDICATES FEW OR NO CLOUDS BELOW 12000 FEET WITH NO
SIGNIFICANT WEATHER AND/OR OBSTRUCTIONS TO VISIBILITY.

COZ001>005-013-030-031-252300-
...NORTHWEST COLORADO...

CITY           SKY/WX    TMP DP  RH WIND       PRES   REMARKS
CRAIG          CLOUDY    60  19  20 SW13      29.86F
HAYDEN         FAIR      57  19  23 CALM      29.87F
MEEKER         PTSUNNY   58  19  22 SW14      29.88F
MOUNT WERNER   NOT AVBL
STEAMBOAT SPGS FAIR      56  20  24 W8        29.88F
WALDEN         NOT AVBL
$$

COZ006>008-011-252300-
...WEST CENTRAL VALLEYS...

CITY           SKY/WX    TMP DP  RH WIND       PRES   REMARKS
GRAND JUNCTION CLOUDY    62  28  27 NW13      29.84F
MONTROSE       CLOUDY    62  20  19 W15G21    29.89S
EAGLE          SUNNY     61  18  18 W9        29.87F
RIFLE          FAIR      64  22  20 W17       29.84F
DELTA          CLOUDY    66  19  16 SW15      29.87S
NUCLA          CLOUDY    59  19  21 SW16      29.94F
$$

COZ017>023-064>068-252300-
...SOUTHWEST COLORADO...

CITY           SKY/WX    TMP DP  RH WIND       PRES   REMARKS
DURANGO        FAIR      58  14  17 SW8       29.95F
CORTEZ         CLOUDY    59  22  24 SW12      29.92F
PAGOSA SPRINGS FAIR      56  18  21 W10G22    29.99F
TELLURIDE      CLOUDY    48  17  29 S14G26    30.01F
WOLF CREEK PAS PTSUNNY   32  10  40 S23G31    30.16F WCI  19
$$

COZ009-010-012-014-032>034-037-058>063-252300-
...CENTRAL COLORADO...

CITY           SKY/WX    TMP DP  RH WIND       PRES   REMARKS
ASPEN          FAIR      57  15  19 N5        29.88F
BUENA VISTA    FAIR      58  15  18 SE18      29.90F
COPPER MTN     NOT AVBL
BERTHOUD PASS  CLOUDY    30  19  64 E12       30.10F WCI  21
COTTONWOOD PAS FAIR      52   5  15 SW8       30.00S
GUNNISON       FAIR      52  14  22 CALM      29.93F
KREMMLING      FAIR      63  10  13 SW15      29.90F
LEADVILLE      FAIR      47  11  23 S12       29.96F
MONARCH PASS   FAIR      37  19  48 SW18G28   30.20F
SALIDA         FAIR      59  16  19 S17       29.97F
SUNLIGHT       CLOUDY    41  16  36 SW7       30.07F
WILKERSON PASS FAIR      41  19  42 S7        30.10F
$$

COZ069>075-252300-
...SAN LUIS VALLEY/SANGRE DE CRISTO MOUNTAINS...

CITY           SKY/WX    TMP DP  RH WIND       PRES   REMARKS
ALAMOSA        FAIR      58  31  35 SE15      29.93F
LA VETA PASS   NOT AVBL
SAGUACHE       FAIR      55  21  26 S10       29.96F
$$

COZ035-036-038>040-252300-
...NORTHERN COLORADO FRONT RANGE...

CITY           SKY/WX    TMP DP  RH WIND       PRES   REMARKS
DENVER INTL AP PTSUNNY   62  17  17 SE17      29.88F
DMNS CITY PARK   N/A     62   8  12 SE12G20   29.86S
AURORA         CLOUDY    60  12  14 SE16      29.88F
FRONT RANGE AP PTSUNNY   63  18  17 SE16G22   29.90F
ERIE MUNI ARPT FAIR      66  10  11 E14G24    29.85F
BOULDER MUN AP FAIR      63  30  29 N8        29.86F
CENTENNIAL     CLOUDY    58  27  30 S15       29.88F
BROOMFIELD     PTSUNNY   64  18  16 E9        29.88F
FORT COLLINS   FAIR      64  29  26 SE7       29.87F
LONGMONT       FAIR      65  30  27 CALM      29.88F
$$

COZ041-046-047-076>085-087-088-252300-
...PIKES PEAK/PALMER DIVIDE AND SOUTHERN FOOTHILLS...

CITY           SKY/WX    TMP DP  RH WIND       PRES   REMARKS
COLO. SPRINGS  CLOUDY    56  26  31 S15       29.92F
A. F. ACADEMY  FAIR      54  28  36 S15       29.91F
SCHRIEVER AFB  FAIR      54  26  32 S13       29.93F
ELLICOTT         N/A    N/A N/A N/A S13       29.92F
FALCON         FAIR      53  26  34 S16       29.96S
FORT CARSON    FAIR      58  28  32 S13       29.91F
LIMON          FAIR      57  30  35 SE16      29.91F
MONUMENT HILL  FAIR      45  28  53 S12       29.94F
TRINIDAD       FAIR      63  25  23 S10       29.90F
$$

COZ042>045-048>051-090-091-252300-
...NORTHEAST COLORADO...

CITY           SKY/WX    TMP DP  RH WIND       PRES   REMARKS
GREELEY ARPT   FAIR      65  29  25 SE15      29.87F
AKRON          FAIR      60  28  29 S10       29.90F
BURLINGTON     FAIR      59  28  30 S7        29.91F
WRAY           NOT AVBL
STERLING       FAIR      63  32  31 S7        29.86F
HOLYOKE        FAIR      63  30  29 S3        29.90F
FORT MORGAN    FAIR      63  27  25 SE7       29.88F
$$

COZ086-089-092>099-252300-
...SOUTHEAST COLORADO...

CITY           SKY/WX    TMP DP  RH WIND       PRES   REMARKS
PUEBLO         FAIR      63  31  30 E9        29.87F
LA JUNTA       FAIR      65  27  23 SE7       29.88F
LAMAR          FAIR      66  25  21 VRB3      29.87F
SPRINGFIELD      N/A     65  21  18 SE8       29.90F
$$




USA.gov is the U.S. government's official web portal to all federal, state and local government web resources and services.